Simultaneous Nadir Overpasses (SNOs) Predictions

Prediction of SNOs between GOES-14 and AQUA Satellite Orbit:

Table of predicted SNOs for the next 14.0 days since TLE Epoch: 2/22/2019
Index Date Time (GOES-14) GOES-14 Lat,Lon AQUA Lat,Lon Distance(km) Time Diff (sec)
1 02/23/2019 08:39:21 0.04,-104.39 0.43,-106.15 200.73 80
2 02/25/2019 08:29:51 0.04,-104.40 -0.23,-103.20 136.61 80
3 02/25/2019 20:51:15 -0.04,-104.22 -0.91,-108.39 473.30 80
4 02/27/2019 08:17:40 0.04,-104.41 -0.83,-100.24 474.02 80
5 02/27/2019 20:39:04 -0.05,-104.23 -0.30,-105.43 136.03 80
6 03/01/2019 20:24:13 -0.05,-104.24 0.31,-102.47 201.29 80
7 03/02/2019 08:45:30 0.05,-104.42 0.71,-107.64 365.30 80
8 03/04/2019 08:33:19 0.06,-104.43 0.10,-104.68 27.59 80
9 03/06/2019 08:23:48 0.06,-104.45 -0.51,-101.72 310.26 80
10 03/06/2019 20:45:12 -0.06,-104.28 -0.60,-106.91 297.87 80
11 03/08/2019 20:30:21 -0.06,-104.30 0.02,-103.95 39.87 80




NCC Satellite Simultaneous Nadir Overpasses (SNOs) Prediction Service
